TIANLIAN 1-03

导读 | 星芒AI

TIANLIAN 1-03 是中国自主研发的第三代地球同步轨道数据中继卫星,于2012年发射。该卫星主要用于为中低轨道航天器提供数据中继和测控支持,提升中国航天测控覆盖率和通信能力。TIANLIAN 1-03 采用东方红三号平台,具备高带宽、多频段通信能力,可支持载人航天、空间站、卫星等任务的数据传输,是中国空间信息传输体系的重要组成部分。

基本信息
目录编号:
38730
目录名称:
TIANLIAN 1-03
国际标识:
2012-040A
轨道中心:
EARTH
卫星名称:
TIANLIAN 1-03
卫星全名:
--
卫星状态:
在轨 (已飞行4844 天)
发射日期:
2012-07-25 UTC
国别 :
中国 (CN)
星等 :
--
轨道信息
数据来源 国际轨道数据 AOE轨道数据
星历时间 2025-10-29T16:18:23+0800
8小时前
查看轨道信息
2025-10-29T05:00:00+0800
20小时前
查看轨道信息
半长轴 42547.709km 42547.68km
偏心率 0.0019685 0.0019676
轨道倾角 5.274° 5.273°
近地点辐角 138.546° 138.241°
升交点赤经 65.484° 65.485°
平近点角 47.766° 240.301°
近地点 36085.818km 36085.828km
远地点 36253.33km 36253.262km
周期 1455.707分钟 1455.706分钟
每日圈数 0.98921 0.989211
详细信息
使用方式:
暂无
2D轨道图
3D轨道图
轨道高度分析图
轨道倾角分析图
轨道综合分析图
查看轨道综合分析图